Regional Weather Roundup
Issued by NWS

Home | Current Version | Previous Version | Graphics & Text | Print | Product List | Glossary On
Versions: 1 2 3 4 5 6 7 8 9 10 11 12 13 14 15 16 17 18 19 20 21 22 23 24 25 26 27 28 29 30 31 32 33 34 35 36 37 38 39 40 41 42 43 44 45 46 47 48 49 50
000
ASUS43 KMKX 210111
RWRWI

WISCONSIN REGIONAL WEATHER ROUNDUP
NATIONAL WEATHER SERVICE MILWAUKEE/SULLIVAN WI
800 PM CDT FRI OCT 20 2017

NOTE: "FAIR" INDICATES FEW OR NO CLOUDS BELOW 12,000 FEET WITH NO
SIGNIFICANT WEATHER AND/OR OBSTRUCTIONS TO VISIBILITY.

WIZ001-002-006>008-014>016-023>028-210200-
NORTHWEST WISCONSIN

CITY           SKY/WX    TMP DP  RH WIND       PRES   REMARKS
SUPERIOR ARPT  CLOUDY    53  50  90 N6        29.71S
ASHLAND        CLOUDY    70  41  34 S12G21    29.75F
HAYWARD        PTCLDY    68  43  40 S13       29.78S
SIREN          CLOUDY    69  38  32 S12G24    29.75R
CUMBERLAND     PTCLDY    61  41  48 S6        29.79R
RICE LAKE      PTCLDY    65  46  48 SE10      29.80S
CHETEK         PTCLDY    66  47  50 S10G18    29.80S
LADYSMITH      CLOUDY    67  42  40 S10       29.84S
EAU CLAIRE     CLOUDY    68  44  42 S15       29.80S
MENOMONIE      CLOUDY    62  45  52 SE8       29.80S
NEW RICHMOND   PTCLDY    65  41  41 S14       29.77R
OSCEOLA        CLOUDY    66  42  41 S13       29.77S
$$

WIZ003>005-009-010-017-018-210200-
NORTH CENTRAL WISCONSIN

CITY           SKY/WX    TMP DP  RH WIND       PRES   REMARKS
MANITOWISH WTR CLOUDY    64  46  51 S12G18    29.86S
ARBOR VITAE    CLOUDY    67  43  41 S13G21    29.88S
WOODRUFF       CLOUDY    67  43  41 S13G21    29.88S
RHINELANDER    CLOUDY    65  43  44 S7        29.91S
EAGLE RIVER    CLOUDY    64  41  43 S6        29.89F
LAND O LAKES   CLOUDY    65  41  42 S8        29.90S
PHILLIPS       CLOUDY    65  43  45 S13G18    29.85S
TOMAHAWK       CLOUDY    61  42  49 CALM      29.90S
MEDFORD        CLOUDY    62  44  51 S13G20    29.88S
MERRILL        CLEAR     66  43  43 S5        29.91S
$$

WIZ029-030-035-036-043>047-210200-
CENTRAL WISCONSIN

CITY           SKY/WX    TMP DP  RH WIND       PRES   REMARKS
WAUSAU         PTCLDY    64  44  48 S9        29.90S
MOSINEE        MOCLDY    63  45  51 SE10      29.92S
MARSHFIELD     PTCLDY    62  44  51 S10       29.89S
STEVENS POINT  CLOUDY    63  44  49 S6        29.93S
WAUPACA        PTCLDY    60  44  57 SE5       29.94S
WAUTOMA        CLOUDY    59  46  62 SE3       29.94F
WISC RAPIDS    CLOUDY    64  45  49 S6        29.92F
CAMP DOUGLAS   NOT AVBL
$$

WIZ011>013-019>022-031-037>040-048>050-210200-
NORTHEAST WISCONSIN

CITY           SKY/WX    TMP DP  RH WIND       PRES   REMARKS
ANTIGO         CLOUDY    59  46  61 S10       29.94S
SHAWANO        PTCLDY    65  47  51 S5        29.94S
OCONTO         PTCLDY    59  53  80 S5        29.94F
STURGEON BAY   CLOUDY    59  52  77 S10       29.97F
GREEN BAY      CLOUDY    62  49  62 SE5       29.96S
MANITOWOC      CLOUDY    58  51  78 S7        29.99S
APPLETON       NOT AVBL
CLINTONVILLE   CLOUDY    63  43  48 S6        29.94S
OSHKOSH        CLOUDY    60  48  64 S8        29.96S
$$

WIZ032>034-041-042-053>061-210200-
SOUTHWEST WISCONSIN

CITY           SKY/WX    TMP DP  RH WIND       PRES   REMARKS
LA CROSSE      PTCLDY    69  45  41 S10       29.85S
SPARTA         CLOUDY    67  48  49 SE8       29.88F
VIROQUA        PTCLDY    65  48  54 S13G20    29.90S
BOSCOBEL       PTCLDY    71  46  40 S8        29.91S
PRAIRIE DU CHI CLOUDY    70  40  33 SE7G17    29.89S
PLATTEVILLE    PTCLDY    63  49  59 SE10      29.96S
$$

WIZ056-057-062-063-064-067-068-210200-
SOUTH CENTRAL WISCONSIN

CITY           SKY/WX    TMP DP  RH WIND       PRES   REMARKS
REEDSBURG      CLEAR     68  47  46 S12G20    29.92F
BARABOO/DELLS  CLEAR     66  46  48 S16       29.94S
LONE ROCK      CLOUDY    67  47  48 SE9       29.94R
MINERAL POINT  PTCLDY    64  46  52 S9        29.96R
MADISON        CLOUDY    65  48  54 S9        29.97S
MIDDLETON      CLOUDY    68  47  45 S8        29.97S
WATERTOWN      CLOUDY    64  50  60 SE8       29.98S
MONROE         PTCLDY    64  46  52 S12       29.98S
JANESVILLE     CLOUDY    70  48  46 S10       29.99S
$$

WIZ051-052-058>065-066-070>072-210200-
SOUTHEAST WISCONSIN

CITY           SKY/WX    TMP DP  RH WIND       PRES   REMARKS
MILWAUKEE      MOCLDY    67  52  58 S10       30.01F
WAUKESHA       CLEAR     66  48  52 S12       30.02F
MILWAUKEE/TIMM CLEAR     68  46  45 S9        30.01F
RACINE         PTCLDY    65  53  65 S9        30.04S
BURLINGTON     CLOUDY    65  51  62 S6        30.02S
KENOSHA        PTCLDY    67  49  52 S9        30.03S
FOND DU LAC    CLOUDY    63  46  54 S7        29.97S
SHEBOYGAN      CLOUDY    56  52  86 S7        29.99F
WEST BEND      PTCLDY    64  46  52 S8        30.00F
JUNEAU         PTCLDY    64  49  57 SE10      29.99S
$$

LSZ147-162-210200-
LAKE SUPERIOR

STATION/POSITION TIME  TEMP    WIND        PRES    WAVE
                       AIR SEA DIR/SP/G            HT/PER
                 (UTC) (F)     (DEG/KT/KT) (MB)    (FT/S)
W MID LAKE BUOY  0050   61 53              1007.5S   1
DEVILS ISLAND    0100   70     180/  9/ 12 1006.8F
PORT WING        2240          190/ 12/ 20 1007.1
SAXON HARBOR     0040   73     190/  8/ 16 1007.1F
$$

LMZ867-665-643>646-210200-
LAKE MICHIGAN

STATION/POSITION TIME  TEMP    WIND        PRES    WAVE
                       AIR SEA DIR/SP/G            HT/PER
                 (UTC) (F)     (DEG/KT/KT) (MB)    (FT/S)
S GREEN BAY BUOY 0100   62 58  170/ 10/ 10 1014.1
N MID LAKE BUOY  0050   61 58  190/ 17/ 21 1015.4R   5/ 6
NORTHPORT PIER   0040   60     170/  7/ 14 1014.6S
KEWAUNEE LAKESHO 0042   56     180/ 12/ 13 1014.5F
SHEBOYGAN LAKESH 0100   61     180/ 17/ 18 1015.5F
PORT WASHINGTON  0030   56     190/  7/  9 1017.3R
ATWATER BUOY     2309   58 53  160/ 12/ 16 1016.3S
MILWAUKEE LAKESH 0050   58     190/  4/  5   N/A
S MID LAKE BUOY  0050   65 61  160/ 14/ 16 1017.5F   1/ 3
KENOSHA   LAKESH 0100   59     170/ 11/ 12 1016.6
$$

TC  - TEMPERATURE IN CELSIUS
VSB - VISIBILITY IN STATUTE MILES
WCI - WIND CHILL INDEX
HX  - HEAT INDEX




USA.gov is the U.S. government's official web portal to all federal, state and local government web resources and services.